Flight Track Log - Related Links

Times and Time Zones

All times are in EDT time to prevent confusion due to time zone crossing. See the FSR511 flight status page for this flight to view local times or setup timezone preferences in your user account.

Time Position Orientation Groundspeed Altitude Reporting Facility
EDT Latitude Longitude Course Direction KTS MPH feet Rate Location/Type
Thu 05:10:03 PM 40.0836 -88.2653 85° East 191 220 4,500  Level Chicago Center
Thu 05:11:05 PM 40.0953 -88.1919 78° East 196 226 7,300 2,710 Climbing Chicago Center
Thu 05:12:07 PM 40.1103 -88.0997 78° East 252 290 10,100 2,710 Climbing Chicago Center
Thu 05:13:09 PM 40.1278 -87.9900 78° East 307 353 12,900 3,097 Climbing Chicago Center
Thu 05:14:11 PM 40.1525 -87.8369 78° East 358 412 16,500 3,339 Climbing Chicago Center
Thu 05:15:00 PM 40.0431 -88.2166 85° East  Level FlightAware Approximate
Thu 05:15:13 PM 40.1753 -87.7014 78° East 378 435 19,800  Level Chicago Center
Thu 05:16:15 PM 40.1703 -87.5569 93° East 400 460 22,600 2,710 Climbing Chicago Center
Thu 05:17:17 PM 40.1639 -87.4103 93° East 402 463 25,400 2,496 Climbing Chicago Center
Thu 05:18:20 PM 40.1800 -87.2689 81° East 394 453 27,800 2,064 Climbing Chicago Center
Thu 05:19:22 PM 40.2128 -87.1289 73° East 397 457 29,700 1,935 Climbing Chicago Center
Thu 05:20:24 PM 40.2503 -86.9533 74° East 414 476 31,800 1,839 Climbing Chicago Center
Thu 05:21:26 PM 40.2817 -86.8047 74° East 418 481 33,500 1,645 Climbing Chicago Center
Thu 05:22:28 PM 40.3128 -86.6561 75° East 420 483 35,200 1,500 Climbing Chicago Center
Thu 05:23:30 PM 40.3433 -86.5083 75° East 420 483 36,600 1,210 Climbing Chicago Center
Thu 05:24:32 PM 40.3742 -86.3617 75° East 419 482 37,700 1,016 Climbing Chicago Center
Thu 05:25:34 PM 40.4050 -86.2114 75° East 420 483 38,700 960 Climbing Chicago Center
Thu 05:26:37 PM 40.4356 -86.0614 75° East 422 486 39,700 1,056 Climbing Chicago Center
Thu 05:27:39 PM 40.4722 -85.8825 75° East 422 486 40,900 629 Climbing Chicago Center
Thu 05:28:41 PM 40.5019 -85.7325 75° East 423 487 41,000 48 Climbing Chicago Center
Thu 05:29:43 PM 40.5333 -85.5756 75° East 437 503 41,000  Level Chicago Center
Thu 05:30:45 PM 40.5653 -85.4119 76° East 459 528 41,000  Level Chicago Center
Thu 05:31:47 PM 40.5972 -85.2458 76° East 465 535 41,000  Level Chicago Center
Thu 05:32:49 PM 40.6294 -85.0789 76° East 470 541 41,000  Level Chicago Center
Thu 05:33:51 PM 40.6631 -84.9011 76° East 472 543 41,000  Level Chicago Center
Thu 05:34:53 PM 40.7014 -84.6994 76° East 473 544 41,000  Level Chicago Center
Thu 05:35:35 PM 40.7158 -84.6175 77° East 471 542 41,000  Level Indianapolis Center
Thu 05:36:37 PM 40.7558 -84.4106 76° East 480 552 41,000  Level Indianapolis Center
Thu 05:37:39 PM 40.7878 -84.2392 76° East 480 552 41,000  Level Indianapolis Center
Thu 05:38:41 PM 40.8206 -84.0625 76° East 488 562 41,000  Level Indianapolis Center
Thu 05:39:43 PM 40.8525 -83.8903 76° East 487 560 41,000  Level Indianapolis Center
Thu 05:40:34 PM 40.8769 -83.7500 77° East 488 562 41,000  Level Cleveland Center
Thu 05:41:36 PM 40.9081 -83.5758 77° East 487 560 41,000  Level Cleveland Center
Thu 05:42:38 PM 40.9464 -83.3656 76° East 488 562 41,000  Level Cleveland Center
Thu 05:43:40 PM 40.9764 -83.1889 77° East 488 562 41,000  Level Cleveland Center
Thu 05:44:42 PM 41.0056 -83.0200 77° East 489 563 41,000  Level Cleveland Center
Thu 05:45:44 PM 41.0367 -82.8450 77° East 489 563 41,000  Level Cleveland Center
Thu 05:48:00 PM 41.1069 -82.4275 77° East 491 565 41,000  Level Indianapolis Center
Thu 05:48:51 PM 41.1325 -82.2786 77° East 493 567 41,000  Level Cleveland Center
Thu 05:49:53 PM 41.1608 -82.1011 78° East 493 567 41,000  Level Cleveland Center
Thu 05:50:55 PM 41.1894 -81.9236 78° East 493 567 41,000  Level Cleveland Center
Thu 05:51:57 PM 41.2178 -81.7444 78° East 494 568 41,000  Level Cleveland Center
Thu 05:52:59 PM 41.2492 -81.5633 77° East 498 573 41,000  Level Cleveland Center
Thu 05:54:01 PM 41.2811 -81.3564 78° East 500 575 41,000  Level Cleveland Center
Thu 05:55:03 PM 41.3092 -81.1769 78° East 498 573 41,000  Level Cleveland Center
Thu 05:56:06 PM 41.3369 -80.9958 78° East 497 572 41,000  Level Cleveland Center
Thu 05:57:07 PM 41.3703 -80.7828 78° East 500 575 41,000  Level Cleveland Center
Thu 05:58:10 PM 41.3978 -80.6000 79° East 500 575 41,000  Level Cleveland Center
Thu 05:59:12 PM 41.4244 -80.4164 79° East 501 577 41,000  Level Cleveland Center
Thu 06:00:14 PM 41.4539 -80.2211 79° East 503 579 41,000  Level Cleveland Center
Thu 06:01:16 PM 41.4803 -80.0364 79° East 506 582 41,000  Level Cleveland Center
Thu 06:02:18 PM 41.5092 -79.8556 78° East 506 582 41,000  Level Cleveland Center
Thu 06:03:20 PM 41.5336 -79.6719 80° East 506 582 41,000  Level Cleveland Center
Thu 06:04:22 PM 41.5600 -79.4878 79° East 506 582 41,000  Level Cleveland Center
Thu 06:05:24 PM 41.5906 -79.2681 79° East 506 582 41,000  Level Cleveland Center
Thu 06:06:26 PM 41.6156 -79.0825 80° East 504 580 41,000  Level Cleveland Center
Thu 06:08:31 PM 41.6658 -78.7069 80° East 513 590 41,000  Level Cleveland Center
Thu 06:09:33 PM 41.6900 -78.5178 80° East 514 592 41,000  Level Cleveland Center
Thu 06:10:35 PM 41.7147 -78.3269 80° East 516 594 41,000  Level Cleveland Center
Thu 06:11:37 PM 41.7442 -78.0981 80° East 518 596 41,000  Level Cleveland Center
Thu 06:12:39 PM 41.7675 -77.9075 81° East 519 597 41,000  Level Cleveland Center
Thu 06:13:41 PM 41.7919 -77.7186 80° East 518 596 41,000  Level Cleveland Center
Thu 06:14:43 PM 41.8147 -77.5286 81° East 518 596 41,000  Level Cleveland Center
Thu 06:15:45 PM 41.8411 -77.3164 80° East 518 596 41,000  Level Cleveland Center
Thu 06:16:47 PM 41.8636 -77.1278 81° East 518 596 41,000  Level Cleveland Center
Thu 06:17:50 PM 41.8864 -76.9389 81° East 517 595 41,000  Level Cleveland Center
Thu 06:18:52 PM 41.9078 -76.7503 81° East 515 593 41,000  Level Cleveland Center
Thu 06:20:24 PM 41.9400 -76.4653 81° East 516 594 41,000  Level Boston Center
Thu 06:21:06 PM 41.9575 -76.3131 81° East 516 594 41,000  Level New York Center
Thu 06:22:09 PM 41.9781 -76.1247 82° East 510 587 41,000 -48 Level New York Center
Thu 06:23:10 PM 41.9992 -75.9317 82° East 515 593 40,900 -384 Descending New York Center
Thu 06:24:14 PM 42.0194 -75.7442 82° East 512 589 40,200 -1,016 Descending New York Center
Thu 06:25:14 PM 42.0386 -75.5575 82° East 504 580 38,800 -1,536 Descending New York Center
Thu 06:26:19 PM 42.0622 -75.3303 82° East 510 587 37,000 -1,667 Descending New York Center
Thu 06:27:20 PM 42.0828 -75.1328 82° East 529 609 35,300 -1,623 Descending New York Center
Thu 06:28:21 PM 42.1025 -74.9542 81° East 529 609 33,700 -1,728 Descending New York Center
Thu 06:29:25 PM 42.1267 -74.7197 82° East 529 609 31,700 -1,810 Descending New York Center
Thu 06:30:27 PM 42.1447 -74.5236 83° East 529 609 29,900 -1,306 Descending New York Center
Thu 06:31:29 PM 42.1633 -74.3353 82° East 510 587 29,000 -738 Descending New York Center
Thu 06:32:29 PM 42.1811 -74.1439 83° East 516 594 28,400 -1,024 Descending New York Center
Thu 06:33:32 PM 42.1983 -73.9489 83° East 523 602 26,900 -1,619 Descending New York Center
Thu 06:34:35 PM 42.2194 -73.7217 83° East 514 592 25,000 -1,667 Descending New York Center
Thu 06:35:38 PM 42.2350 -73.5364 83° East 505 581 23,400 -1,536 Descending New York Center
Thu 06:36:40 PM 42.2508 -73.3581 83° East 488 562 21,800 -1,488 Descending New York Center
Thu 06:37:43 PM 42.2642 -73.1864 84° East 472 543 20,300 -1,366 Descending New York Center
Thu 06:38:43 PM 42.2022 -73.0475 121° Southeast 456 525 19,000 -549 Descending New York Center
Thu 06:40:05 PM 42.0756 -72.8708 134° Southeast 430 495 19,000  Level Boston Center
Thu 06:41:07 PM 41.9919 -72.7581 135° Southeast 428 493 19,000 -336 Level Boston Center
Thu 06:42:10 PM 41.9092 -72.6358 132° Southeast 428 493 18,300 -1,536 Descending Boston Center
Thu 06:43:12 PM 41.8367 -72.4986 125° Southeast 416 479 15,800 -2,286 Descending Boston Center
Thu 06:44:16 PM 41.7678 -72.3756 127° Southeast 416 479 13,500 -2,296 Descending Boston Center
Thu 06:45:07 PM 41.7081 -72.2694 127° Southeast 374 430 11,400 -2,262 Descending Boston Center
Thu 06:45:17 PM 41.6986 -72.2542 130° Southeast 381 438 11,200 -324 Descending Boston Center
Thu 06:46:21 PM 41.6439 -72.1528 126° Southeast 287 330 11,000 -145 Descending Boston Center
Thu 06:47:21 PM 41.5947 -72.0681 128° Southeast 290 334 10,900 -1,200 Descending Boston Center
Thu 06:48:16 PM 41.5522 -71.9917 127° Southeast 279 321 8,700 -2,821 Descending Boston Center
Thu 06:49:35 PM 41.5739 -71.8786 76° East 247 284 4,600 -2,611 Descending Boston Center
Thu 06:50:27 PM 41.5969 -71.8106 66° East 252 290 3,000 -835 Descending Boston Center
Thu 06:51:30 PM 41.6253 -71.7392 62° Northeast 204 235 3,000  Level Boston Center
Thu 06:52:31 PM 41.6444 -71.6658 71° East 208 239 3,000 -414 Level Boston Center
Thu 06:53:26 PM 41.6567 -71.5950 77° East 212 244 2,200 -730 Descending Boston Center
Thu 06:54:26 PM 41.6692 -71.5244 77° East 170 196 1,600 -600 Descending Boston Center
Thu 06:54:36 PM 41.6722 -71.5142 68° East 185 213 1,500 -689 Descending Boston Center
Thu 06:55:27 PM 41.6842 -71.4725 69° East 143 165 900 -684 Descending Boston Center
Thu 06:56:30 PM 41.7078 -71.4408 45° Northeast 124 143 200 -667 Descending Boston Center
Thu 06:58:00 PM 41.7167 -71.4167 37° Northeast  Level FlightAware Approximate
Thu 07:05:00 PM 41.7240 -71.4282 37° Northeast  Level Estimated
Thu 07:06:00 PM 41.7240 -71.4282 37° Northeast  Level Estimated

Login

Don't have an account? Register now (free) for customized features, flight alerts, and more!